Location: Aressy
(43.2833°N, 0.3167°W)
Time: 20:52:05
(UTC+00:00)

SKYMED 2 - Pass Details

Date: 28 January 2021
Orbit: 621 x 624 km, 97.9° (Epoch: 03 March)

Event Time Altitude Azimuth Distance (km) Brightness Sun altitude
Rises 17:56:52 0° 15° (NNE) 2,913 6.7 -9.2°
Reaches altitude 10° 17:59:05 10° 19° (NNE) 2,001 5.8 -9.5°
Maximum altitude 18:03:25 65° 101° (ESE) 688 3.6 -10.3°
Drops below altitude 10° 18:07:42 10° 184° (S) 1,984 6.4 -11.1°
Sets 18:09:54 0° 187° (S) 2,885 7.3 -11.4°
